Location: Unspecified
(0.0000°N, 0.0000°E)
Time: 01:26:24
(UTC+00:00)

Explorer 11/Cluster Stage 4 - Pass Details

Date: 27 November 2019
Orbit: 467 x 1259 km, 28.8° (Epoch: 11 December)

Event Time Altitude Azimuth Distance (km) Brightness Sun altitude
Exits shadow 02:05:49 19° 157° (SSE) 2,633 9.5 -50.2°
Drops below altitude 10° 02:08:08 10° 146° (SE) 3,229 10.1 -49.7°
Sets 02:11:23 0° 137° (SE) 4,167 10.9 -49.0°
